QPF
0.00 0.00 0.00 0.00 0.00 0.00 0.00 0.00 0.00 0.00 0.00 0.00 0.00 0.00 0.00 0.00 0.00 0.00 0.00 0.00 0.00 0.00 0.01 0.01 0.01 0.02 0.02 0.02 0.01 0.01 0.01 0.01 0.00 0.00 0.00 0.00 0.00 0.00 0.00 0.00 0.01 0.01 0.00
0.00 0.00 0.00 0.00 0.00 0.00 0.00 0.00 0.00 0.00 0.00 0.00 0.00 0.00 0.00 0.00 0.00 0.00 0.00 0.00 0.00 0.00 0.01 0.01 0.01 0.02 0.02 0.01 0.01 0.01 0.00 0.00 0.00 0.00 0.00 0.00 0.00 0.00 0.00 0.01 0.02 0.02 0.00
0.00 0.00 0.00 0.00 0.00 0.00 0.00 0.00 0.00 0.00 0.00 0.00 0.00 0.00 0.00 0.00 0.00 0.00 0.00 0.00 0.00 0.00 0.00 0.01 0.01 0.01 0.01 0.00 0.00 0.00 0.00 0.00 0.00 0.00 0.03 0.05 0.01 0.00 0.00 0.01 0.01 0.01 0.01
0.00 0.00 0.00 0.00 0.00 0.00 0.00 0.00 0.00 0.00 0.00 0.00 0.00 0.00 0.00 0.00 0.00 0.00 0.00 0.00 0.00 0.00 0.00 0.00 0.00 0.00 0.00 0.00 0.00 0.00 0.00 0.00 0.00 0.02 0.13 0.10 0.03 0.01 0.00 0.00 0.00 0.01 0.01
0.00 0.00 0.00 0.00 0.00 0.00 0.00 0.00 0.00 0.00 0.00 0.00 0.00 0.00 0.00 0.00 0.00 0.00 0.00 0.00 0.00 0.00 0.00 0.00 0.00 0.00 0.00 0.00 0.00 0.00 0.00 0.00 0.02 0.07 0.12 0.08 0.08 0.03 0.00 0.00 0.00 0.01 0.01
0.00 0.00 0.00 0.00 0.00 0.00 0.00 0.00 0.00 0.00 0.00 0.00 0.00 0.00 0.00 0.00 0.00 0.00 0.00 0.00 0.00 0.00 0.00 0.00 0.00 0.00 0.00 0.00 0.00 0.00 0.00 0.01 0.03 0.07 0.05 0.04 0.07 0.03 0.01 0.00 0.00 0.00 0.01
0.00 0.00 0.00 0.00 0.00 0.00 0.00 0.00 0.00 0.00 0.00 0.00 0.00 0.00 0.00 0.00 0.00 0.00 0.00 0.00 0.00 0.00 0.00 0.00 0.00 0.00 0.00 0.00 0.00 0.00 0.00 0.02 0.04 0.06 0.02 0.03 0.07 0.04 0.02 0.01 0.01 0.01 0.01
0.01 0.01 0.01 0.00 0.00 0.00 0.01 0.00 0.00 0.00 0.00 0.00 0.00 0.00 0.00 0.00 0.00 0.00 0.00 0.00 0.00 0.00 0.00 0.00 0.00 0.00 0.00 0.00 0.00 0.00 0.00 0.01 0.02 0.02 0.01 0.02 0.03 0.02 0.02 0.03 0.03 0.03 0.02
0.01 0.01 0.02 0.01 0.01 0.01 0.01 0.00 0.00 0.00 0.00 0.01 0.00 0.00 0.00 0.00 0.00 0.00 0.00 0.00 0.00 0.00 0.00 0.00 0.00 0.00 0.00 0.00 0.00 0.00 0.00 0.00 0.01 0.01 0.02 0.02 0.02 0.01 0.02 0.03 0.04 0.03 0.03
0.03 0.02 0.02 0.03 0.02 0.02 0.01 0.01 0.01 0.01 0.01 0.01 0.01 0.01 0.00 0.00 0.00 0.00 0.00 0.00 0.00 0.00 0.00 0.00 0.00 0.00 0.00 0.00 0.00 0.00 0.00 0.01 0.01 0.02 0.06 0.05 0.02 0.01 0.02 0.03 0.04 0.05 0.04
0.01 0.03 0.03 0.04 0.05 0.04 0.03 0.02 0.02 0.01 0.01 0.01 0.00 0.00 0.00 0.00 0.00 0.00 0.00 0.00 0.00 0.00 0.00 0.00 0.00 0.00 0.00 0.00 0.00 0.00 0.00 0.01 0.02 0.04 0.08 0.04 0.01 0.01 0.03 0.03 0.04 0.04 0.04
0.01 0.02 0.02 0.03 0.03 0.04 0.03 0.02 0.02 0.02 0.01 0.00 0.00 0.00 0.00 0.02 0.03 0.02 0.02 0.01 0.00 0.00 0.00 0.00 0.00 0.00 0.00 0.01 0.00 0.00 0.00 0.01 0.05 0.04 0.06 0.02 0.01 0.01 0.03 0.04 0.05 0.05 0.05
0.02 0.01 0.01 0.02 0.02 0.02 0.03 0.04 0.03 0.02 0.04 0.02 0.04 0.04 0.03 0.06 0.05 0.03 0.03 0.00 0.00 0.00 0.01 0.01 0.00 0.00 0.01 0.01 0.01 0.00 0.00 0.01 0.02 0.01 0.02 0.02 0.02 0.02 0.03 0.05 0.06 0.06 0.07
0.02 0.02 0.01 0.02 0.02 0.04 0.07 0.06 0.05 0.03 0.04 0.06 0.12 0.07 0.06 0.08 0.09 0.08 0.09 0.03 0.01 0.01 0.02 0.03 0.02 0.01 0.01 0.00 0.00 0.00 0.00 0.01 0.02 0.02 0.02 0.01 0.01 0.02 0.03 0.04 0.06 0.06 0.09
0.07 0.06 0.04 0.05 0.06 0.08 0.14 0.15 0.14 0.09 0.07 0.13 0.23 0.15 0.11 0.06 0.08 0.13 0.15 0.11 0.05 0.04 0.03 0.04 0.03 0.03 0.01 0.01 0.01 0.01 0.01 0.02 0.05 0.06 0.05 0.03 0.01 0.02 0.03 0.05 0.06 0.08 0.09
0.17 0.14 0.12 0.10 0.12 0.11 0.12 0.15 0.14 0.13 0.14 0.15 0.20 0.16 0.15 0.12 0.12 0.15 0.17 0.14 0.07 0.08 0.07 0.05 0.04 0.03 0.04 0.05 0.03 0.02 0.03 0.04 0.06 0.06 0.09 0.09 0.05 0.04 0.04 0.04 0.05 0.07 0.09
0.18 0.17 0.27 0.24 0.18 0.12 0.12 0.14 0.15 0.15 0.18 0.17 0.23 0.25 0.21 0.22 0.25 0.22 0.26 0.19 0.10 0.08 0.10 0.07 0.07 0.07 0.08 0.07 0.07 0.06 0.07 0.08 0.08 0.08 0.11 0.17 0.12 0.10 0.07 0.07 0.06 0.06 0.08
0.27 0.19 0.22 0.24 0.18 0.14 0.15 0.21 0.20 0.21 0.27 0.27 0.31 0.47 0.47 0.37 0.34 0.30 0.26 0.22 0.15 0.13 0.15 0.14 0.13 0.14 0.14 0.12 0.11 0.10 0.10 0.11 0.07 0.09 0.10 0.11 0.12 0.10 0.06 0.04 0.03 0.03 0.05
0.24 0.25 0.21 0.21 0.20 0.19 0.22 0.26 0.22 0.23 0.33 0.38 0.37 0.47 0.47 0.44 0.42 0.38 0.38 0.36 0.26 0.24 0.19 0.13 0.19 0.19 0.18 0.17 0.14 0.13 0.10 0.10 0.08 0.07 0.05 0.06 0.07 0.07 0.07 0.05 0.03 0.02 0.04
0.14 0.20 0.23 0.25 0.28 0.30 0.30 0.31 0.30 0.29 0.32 0.42 0.45 0.47 0.47 0.49 0.48 0.43 0.40 0.38 0.32 0.28 0.26 0.22 0.22 0.20 0.18 0.16 0.13 0.11 0.09 0.08 0.08 0.09 0.06 0.06 0.07 0.06 0.05 0.04 0.03 0.03 0.03
0.11 0.16 0.21 0.28 0.32 0.36 0.37 0.35 0.37 0.30 0.32 0.34 0.34 0.31 0.32 0.37 0.34 0.29 0.29 0.31 0.28 0.24 0.21 0.21 0.20 0.20 0.18 0.16 0.17 0.14 0.10 0.09 0.09 0.07 0.06 0.05 0.04 0.03 0.02 0.03 0.03 0.03 0.03
0.13 0.14 0.16 0.18 0.27 0.36 0.37 0.42 0.47 0.41 0.33 0.30 0.29 0.32 0.28 0.33 0.32 0.27 0.28 0.24 0.21 0.20 0.19 0.18 0.20 0.21 0.18 0.17 0.21 0.21 0.15 0.11 0.07 0.04 0.04 0.03 0.02 0.02 0.02 0.02 0.02 0.02 0.03
0.13 0.12 0.11 0.13 0.20 0.33 0.34 0.34 0.43 0.40 0.27 0.27 0.26 0.28 0.27 0.31 0.37 0.32 0.32 0.27 0.21 0.19 0.17 0.17 0.17 0.18 0.21 0.19 0.17 0.21 0.21 0.19 0.10 0.06 0.03 0.02 0.02 0.02 0.02 0.02 0.02 0.01 0.01
0.10 0.12 0.12 0.12 0.14 0.20 0.27 0.33 0.32 0.27 0.20 0.19 0.18 0.16 0.17 0.18 0.19 0.20 0.20 0.22 0.22 0.19 0.18 0.17 0.14 0.16 0.21 0.20 0.16 0.14 0.15 0.17 0.12 0.07 0.04 0.02 0.02 0.02 0.01 0.01 0.01 0.01 0.02
0.06 0.08 0.10 0.12 0.14 0.16 0.17 0.23 0.27 0.24 0.21 0.21 0.17 0.13 0.12 0.13 0.14 0.14 0.15 0.16 0.17 0.18 0.17 0.16 0.14 0.13 0.15 0.15 0.13 0.11 0.10 0.10 0.09 0.07 0.05 0.03 0.02 0.01 0.01 0.01 0.01 0.01 0.01
0.05 0.05 0.07 0.10 0.15 0.15 0.15 0.16 0.19 0.18 0.18 0.18 0.18 0.16 0.14 0.13 0.12 0.12 0.13 0.15 0.15 0.15 0.13 0.12 0.11 0.10 0.10 0.10 0.10 0.09 0.07 0.07 0.07 0.07 0.05 0.03 0.02 0.01 0.01 0.01 0.01 0.01 0.00
MSLP
1008.12 1008.19 1008.48 1008.98 1009.62 1010.30 1010.92 1011.42 1011.78 1012.01 1012.16 1012.30 1012.49 1012.76 1013.11 1013.51 1013.92 1014.28 1014.58 1014.80 1014.96 1015.08 1015.22 1015.38 1015.57 1015.80 1016.02 1016.22 1016.36 1016.44 1016.47 1016.48 1016.49 1016.55 1016.66 1016.83 1017.05 1017.29 1017.53 1017.73 1017.89 1018.01 1018.11
1008.06 1008.21 1008.57 1009.13 1009.79 1010.46 1011.05 1011.50 1011.82 1012.02 1012.18 1012.36 1012.62 1012.97 1013.41 1013.87 1014.31 1014.68 1014.95 1015.12 1015.21 1015.29 1015.38 1015.52 1015.71 1015.95 1016.18 1016.39 1016.54 1016.62 1016.64 1016.64 1016.65 1016.71 1016.83 1017.02 1017.26 1017.51 1017.76 1017.97 1018.14 1018.26 1018.35
1007.81 1008.04 1008.48 1009.10 1009.79 1010.47 1011.05 1011.49 1011.79 1012.00 1012.18 1012.41 1012.73 1013.14 1013.62 1014.11 1014.56 1014.90 1015.13 1015.24 1015.30 1015.34 1015.42 1015.57 1015.78 1016.04 1016.30 1016.52 1016.68 1016.75 1016.76 1016.75 1016.75 1016.80 1016.92 1017.12 1017.36 1017.63 1017.89 1018.11 1018.29 1018.43 1018.54
1007.41 1007.73 1008.25 1008.93 1009.67 1010.37 1010.97 1011.41 1011.73 1011.96 1012.18 1012.46 1012.82 1013.27 1013.77 1014.25 1014.67 1014.97 1015.15 1015.23 1015.26 1015.30 1015.41 1015.59 1015.84 1016.14 1016.43 1016.66 1016.80 1016.86 1016.85 1016.81 1016.79 1016.83 1016.95 1017.15 1017.39 1017.66 1017.93 1018.16 1018.35 1018.52 1018.66
1006.93 1007.34 1007.95 1008.71 1009.50 1010.24 1010.86 1011.34 1011.68 1011.95 1012.21 1012.52 1012.92 1013.38 1013.87 1014.33 1014.71 1014.97 1015.11 1015.17 1015.21 1015.28 1015.42 1015.65 1015.96 1016.29 1016.60 1016.82 1016.94 1016.97 1016.92 1016.85 1016.81 1016.84 1016.95 1017.14 1017.39 1017.66 1017.92 1018.16 1018.36 1018.55 1018.73
1006.48 1007.00 1007.70 1008.53 1009.37 1010.16 1010.81 1011.31 1011.68 1011.99 1012.29 1012.63 1013.05 1013.51 1013.98 1014.41 1014.74 1014.97 1015.09 1015.15 1015.21 1015.33 1015.53 1015.82 1016.17 1016.52 1016.82 1017.02 1017.10 1017.08 1016.99 1016.89 1016.82 1016.84 1016.95 1017.14 1017.39 1017.65 1017.91 1018.14 1018.34 1018.54 1018.74
1006.15 1006.77 1007.56 1008.45 1009.34 1010.16 1010.83 1011.35 1011.75 1012.09 1012.42 1012.79 1013.22 1013.68 1014.13 1014.53 1014.83 1015.03 1015.15 1015.23 1015.33 1015.50 1015.76 1016.09 1016.46 1016.81 1017.08 1017.23 1017.25 1017.17 1017.04 1016.90 1016.83 1016.85 1016.97 1017.17 1017.42 1017.67 1017.91 1018.13 1018.32 1018.50 1018.71
1005.99 1006.70 1007.56 1008.50 1009.42 1010.24 1010.91 1011.44 1011.86 1012.22 1012.58 1012.98 1013.42 1013.88 1014.32 1014.69 1014.97 1015.16 1015.29 1015.39 1015.53 1015.75 1016.04 1016.40 1016.77 1017.09 1017.30 1017.38 1017.34 1017.20 1017.03 1016.88 1016.81 1016.86 1017.01 1017.23 1017.49 1017.74 1017.96 1018.13 1018.29 1018.44 1018.62
1005.99 1006.77 1007.68 1008.63 1009.54 1010.33 1010.99 1011.52 1011.94 1012.32 1012.71 1013.13 1013.59 1014.06 1014.50 1014.86 1015.13 1015.32 1015.45 1015.59 1015.75 1015.99 1016.30 1016.65 1016.99 1017.26 1017.40 1017.41 1017.30 1017.12 1016.93 1016.79 1016.76 1016.85 1017.04 1017.31 1017.59 1017.84 1018.03 1018.16 1018.26 1018.35 1018.47
1006.07 1006.89 1007.81 1008.74 1009.61 1010.36 1010.98 1011.48 1011.90 1012.30 1012.72 1013.18 1013.66 1014.15 1014.60 1014.96 1015.24 1015.43 1015.57 1015.71 1015.89 1016.14 1016.44 1016.76 1017.05 1017.26 1017.34 1017.29 1017.13 1016.92 1016.74 1016.64 1016.66 1016.81 1017.08 1017.39 1017.70 1017.96 1018.12 1018.21 1018.23 1018.24 1018.29
1006.15 1006.97 1007.86 1008.74 1009.54 1010.23 1010.79 1011.26 1011.68 1012.09 1012.54 1013.04 1013.56 1014.08 1014.54 1014.92 1015.19 1015.39 1015.54 1015.69 1015.87 1016.11 1016.39 1016.67 1016.92 1017.06 1017.09 1017.00 1016.83 1016.63 1016.49 1016.45 1016.54 1016.78 1017.11 1017.49 1017.83 1018.09 1018.23 1018.26 1018.21 1018.14 1018.09
1006.13 1006.92 1007.75 1008.56 1009.27 1009.88 1010.39 1010.82 1011.24 1011.67 1012.16 1012.69 1013.25 1013.80 1014.28 1014.67 1014.96 1015.16 1015.31 1015.46 1015.65 1015.87 1016.13 1016.39 1016.60 1016.72 1016.72 1016.63 1016.48 1016.33 1016.25 1016.28 1016.46 1016.78 1017.18 1017.60 1017.97 1018.23 1018.35 1018.34 1018.23 1018.08 1017.94
1005.93 1006.68 1007.44 1008.17 1008.80 1009.34 1009.80 1010.21 1010.62 1011.07 1011.59 1012.16 1012.75 1013.32 1013.82 1014.22 1014.52 1014.74 1014.90 1015.06 1015.24 1015.47 1015.72 1015.97 1016.18 1016.30 1016.33 1016.28 1016.18 1016.10 1016.10 1016.23 1016.49 1016.87 1017.33 1017.78 1018.16 1018.41 1018.51 1018.47 1018.31 1018.11 1017.90
1005.54 1006.25 1006.96 1007.62 1008.20 1008.69 1009.11 1009.51 1009.93 1010.40 1010.94 1011.53 1012.14 1012.72 1013.22 1013.64 1013.95 1014.17 1014.36 1014.53 1014.74 1014.98 1015.26 1015.53 1015.76 1015.93 1016.02 1016.04 1016.04 1016.06 1016.15 1016.36 1016.68 1017.11 1017.59 1018.05 1018.42 1018.65 1018.74 1018.67 1018.50 1018.27 1018.04
1005.00 1005.69 1006.37 1007.01 1007.57 1008.05 1008.48 1008.89 1009.32 1009.81 1010.35 1010.94 1011.53 1012.10 1012.60 1013.01 1013.32 1013.57 1013.78 1014.00 1014.24 1014.53 1014.84 1015.17 1015.46 1015.71 1015.89 1016.01 1016.12 1016.24 1016.43 1016.71 1017.08 1017.53 1018.00 1018.43 1018.77 1018.99 1019.05 1018.98 1018.81 1018.60 1018.38
1004.41 1005.11 1005.81 1006.47 1007.06 1007.58 1008.05 1008.50 1008.96 1009.45 1009.98 1010.53 1011.09 1011.61 1012.07 1012.46 1012.78 1013.04 1013.29 1013.55 1013.85 1014.19 1014.57 1014.97 1015.34 1015.68 1015.97 1016.21 1016.43 1016.66 1016.94 1017.28 1017.67 1018.11 1018.55 1018.93 1019.23 1019.41 1019.47 1019.41 1019.27 1019.10 1018.92
1003.88 1004.63 1005.39 1006.13 1006.80 1007.40 1007.95 1008.45 1008.94 1009.43 1009.93 1010.42 1010.91 1011.35 1011.76 1012.10 1012.41 1012.69 1012.97 1013.28 1013.63 1014.04 1014.48 1014.95 1015.41 1015.84 1016.23 1016.58 1016.91 1017.24 1017.60 1017.98 1018.38 1018.80 1019.19 1019.53 1019.78 1019.93 1019.97 1019.94 1019.85 1019.74 1019.63
1003.52 1004.34 1005.20 1006.04 1006.82 1007.54 1008.19 1008.77 1009.29 1009.78 1010.23 1010.65 1011.04 1011.39 1011.71 1012.01 1012.28 1012.56 1012.86 1013.21 1013.61 1014.07 1014.56 1015.08 1015.60 1016.10 1016.58 1017.02 1017.45 1017.87 1018.28 1018.70 1019.12 1019.52 1019.87 1020.16 1020.36 1020.49 1020.54 1020.53 1020.50 1020.46 1020.43
1003.40 1004.30 1005.25 1006.20 1007.12 1007.97 1008.73 1009.39 1009.96 1010.44 1010.84 1011.18 1011.47 1011.72 1011.95 1012.17 1012.41 1012.67 1012.98 1013.35 1013.77 1014.24 1014.76 1015.30 1015.85 1016.39 1016.92 1017.43 1017.93 1018.41 1018.89 1019.34 1019.77 1020.16 1020.49 1020.75 1020.93 1021.05 1021.11 1021.14 1021.16 1021.20 1021.25
1003.55 1004.49 1005.51 1006.56 1007.59 1008.56 1009.43 1010.18 1010.80 1011.29 1011.65 1011.93 1012.13 1012.28 1012.43 1012.58 1012.77 1013.00 1013.30 1013.65 1014.07 1014.53 1015.03 1015.55 1016.09 1016.63 1017.17 1017.72 1018.26 1018.79 1019.31 1019.81 1020.27 1020.67 1021.00 1021.25 1021.44 1021.56 1021.65 1021.72 1021.79 1021.89 1022.00
1003.95 1004.89 1005.92 1007.02 1008.12 1009.18 1010.14 1010.97 1011.64 1012.16 1012.52 1012.75 1012.89 1012.99 1013.07 1013.16 1013.31 1013.50 1013.77 1014.09 1014.46 1014.88 1015.33 1015.80 1016.28 1016.79 1017.31 1017.85 1018.41 1018.98 1019.54 1020.08 1020.57 1021.00 1021.36 1021.63 1021.84 1021.99 1022.11 1022.22 1022.34 1022.48 1022.63
1004.56 1005.40 1006.38 1007.46 1008.58 1009.68 1010.71 1011.60 1012.34 1012.90 1013.29 1013.53 1013.66 1013.73 1013.79 1013.85 1013.96 1014.13 1014.35 1014.62 1014.94 1015.28 1015.65 1016.04 1016.45 1016.89 1017.37 1017.88 1018.43 1019.01 1019.59 1020.16 1020.69 1021.17 1021.56 1021.88 1022.13 1022.32 1022.48 1022.63 1022.78 1022.95 1023.12
1005.28 1005.98 1006.83 1007.82 1008.89 1009.98 1011.04 1011.99 1012.79 1013.42 1013.88 1014.17 1014.35 1014.45 1014.52 1014.59 1014.69 1014.82 1015.01 1015.23 1015.47 1015.74 1016.02 1016.32 1016.64 1017.00 1017.42 1017.89 1018.41 1018.97 1019.56 1020.15 1020.71 1021.21 1021.65 1022.02 1022.31 1022.55 1022.75 1022.93 1023.11 1023.29 1023.47
1006.06 1006.56 1007.23 1008.07 1009.04 1010.08 1011.12 1012.11 1012.98 1013.70 1014.25 1014.65 1014.92 1015.09 1015.21 1015.32 1015.43 1015.56 1015.72 1015.89 1016.07 1016.26 1016.46 1016.68 1016.92 1017.21 1017.56 1017.97 1018.45 1018.99 1019.56 1020.14 1020.70 1021.22 1021.68 1022.08 1022.41 1022.68 1022.92 1023.13 1023.32 1023.50 1023.68
1006.87 1007.14 1007.61 1008.27 1009.10 1010.05 1011.06 1012.06 1012.99 1013.80 1014.47 1014.98 1015.37 1015.65 1015.86 1016.03 1016.17 1016.31 1016.45 1016.59 1016.73 1016.86 1017.00 1017.15 1017.34 1017.57 1017.86 1018.23 1018.65 1019.14 1019.66 1020.21 1020.74 1021.24 1021.70 1022.10 1022.45 1022.75 1023.01 1023.23 1023.44 1023.62 1023.79
1007.68 1007.76 1008.03 1008.51 1009.19 1010.03 1010.98 1011.97 1012.94 1013.83 1014.61 1015.25 1015.76 1016.16 1016.46 1016.70 1016.89 1017.04 1017.18 1017.30 1017.41 1017.51 1017.62 1017.74 1017.90 1018.10 1018.36 1018.68 1019.05 1019.48 1019.94 1020.41 1020.89 1021.34 1021.76 1022.14 1022.47 1022.77 1023.03 1023.26 1023.47 1023.65 1023.81
Thickness
5822 5817 5811 5808 5804 5801 5798 5794 5791 5788 5786 5783 5781 5779 5777 5775 5773 5772 5770 5768 5766 5764 5762 5760 5759 5757 5756 5755 5754 5753 5752 5751 5750 5749 5748 5746 5744 5742 5740 5739 5738 5737 5735
5824 5815 5810 5806 5803 5799 5796 5793 5789 5786 5784 5781 5779 5776 5774 5772 5770 5769 5767 5765 5763 5761 5759 5758 5756 5755 5754 5752 5751 5750 5749 5748 5747 5747 5745 5743 5741 5739 5738 5737 5737 5734 5732
5821 5813 5808 5804 5801 5798 5794 5791 5788 5784 5781 5779 5776 5774 5772 5770 5768 5766 5764 5762 5761 5759 5757 5755 5754 5753 5752 5750 5749 5748 5747 5746 5745 5744 5744 5742 5739 5737 5735 5734 5733 5731 5729
5820 5812 5807 5802 5799 5796 5792 5789 5786 5782 5779 5776 5774 5772 5769 5767 5765 5763 5761 5759 5758 5756 5755 5753 5752 5750 5749 5748 5747 5746 5745 5745 5744 5743 5743 5742 5739 5735 5733 5731 5730 5728 5726
5819 5812 5803 5798 5796 5793 5790 5786 5783 5780 5777 5774 5772 5769 5767 5765 5763 5761 5759 5757 5755 5754 5752 5751 5750 5748 5747 5746 5745 5744 5744 5743 5743 5742 5743 5742 5739 5734 5732 5730 5728 5726 5724
5816 5809 5799 5795 5792 5790 5787 5783 5781 5778 5775 5771 5769 5766 5764 5762 5761 5758 5757 5755 5753 5751 5750 5749 5748 5747 5745 5744 5743 5743 5743 5742 5742 5743 5743 5742 5738 5734 5731 5728 5726 5724 5722
5814 5806 5796 5792 5788 5786 5783 5780 5777 5775 5772 5768 5766 5764 5762 5760 5758 5756 5754 5752 5751 5749 5748 5747 5746 5745 5744 5743 5742 5741 5741 5741 5742 5744 5744 5742 5738 5734 5730 5728 5726 5723 5721
5812 5803 5792 5788 5784 5781 5779 5776 5774 5771 5769 5766 5763 5761 5759 5757 5755 5753 5752 5750 5749 5747 5746 5745 5744 5743 5742 5741 5741 5740 5740 5740 5744 5746 5744 5742 5738 5734 5730 5727 5725 5722 5720
5809 5800 5790 5784 5780 5777 5775 5773 5770 5768 5765 5762 5760 5758 5756 5754 5752 5751 5749 5747 5746 5745 5744 5743 5742 5741 5741 5740 5740 5739 5740 5740 5742 5745 5744 5740 5737 5734 5730 5727 5724 5722 5720
5805 5797 5789 5784 5779 5774 5771 5768 5766 5764 5762 5759 5757 5755 5753 5751 5750 5748 5747 5745 5744 5743 5742 5741 5740 5740 5739 5739 5739 5739 5739 5741 5743 5743 5741 5738 5736 5733 5730 5727 5724 5722 5720
5799 5794 5788 5784 5778 5774 5769 5765 5762 5760 5758 5756 5753 5752 5750 5749 5748 5746 5746 5743 5742 5741 5740 5740 5739 5739 5738 5738 5738 5738 5739 5741 5743 5742 5739 5737 5735 5733 5730 5727 5724 5722 5720
5792 5791 5788 5785 5779 5775 5771 5764 5761 5758 5755 5754 5753 5750 5749 5750 5749 5747 5745 5742 5740 5739 5738 5738 5738 5737 5737 5738 5739 5738 5739 5741 5742 5741 5738 5736 5734 5732 5729 5726 5724 5721 5719
5792 5790 5789 5785 5779 5776 5772 5764 5761 5758 5755 5753 5753 5751 5749 5750 5749 5747 5743 5739 5738 5737 5737 5737 5736 5737 5738 5740 5741 5740 5741 5742 5742 5740 5736 5734 5732 5730 5728 5725 5722 5720 5718
5790 5787 5786 5783 5777 5774 5771 5765 5761 5759 5756 5754 5753 5751 5749 5749 5749 5748 5743 5740 5739 5738 5738 5738 5738 5739 5740 5741 5742 5741 5741 5741 5740 5738 5733 5731 5729 5727 5725 5723 5721 5718 5716
5782 5779 5779 5779 5774 5771 5768 5764 5759 5758 5756 5754 5752 5750 5749 5748 5748 5748 5743 5740 5741 5741 5739 5740 5740 5740 5740 5740 5740 5740 5739 5737 5736 5733 5729 5726 5725 5723 5721 5720 5717 5715 5714
5774 5774 5775 5772 5770 5768 5764 5760 5757 5755 5753 5752 5750 5746 5746 5746 5746 5745 5742 5741 5742 5741 5740 5740 5739 5738 5737 5736 5735 5734 5734 5732 5730 5728 5724 5721 5719 5717 5716 5714 5713 5711 5710
5766 5768 5767 5766 5764 5763 5760 5758 5755 5753 5751 5749 5746 5743 5742 5742 5740 5739 5739 5736 5737 5738 5738 5737 5736 5735 5733 5731 5729 5728 5727 5725 5723 5721 5718 5715 5713 5710 5709 5707 5706 5705 5704
5760 5761 5762 5762 5759 5758 5757 5754 5752 5749 5747 5745 5742 5740 5736 5737 5735 5734 5734 5732 5732 5733 5733 5731 5730 5728 5726 5724 5722 5721 5720 5718 5716 5714 5711 5708 5706 5704 5701 5699 5698 5697 5696
5753 5751 5753 5754 5753 5752 5750 5748 5746 5743 5742 5738 5735 5734 5731 5731 5731 5728 5729 5728 5727 5726 5726 5725 5724 5722 5718 5716 5714 5712 5711 5709 5708 5706 5703 5700 5698 5695 5693 5690 5689 5687 5686
5747 5746 5745 5745 5745 5744 5742 5740 5736 5735 5733 5731 5729 5728 5726 5725 5726 5725 5723 5723 5722 5721 5720 5719 5717 5716 5713 5711 5708 5704 5702 5701 5699 5697 5695 5692 5689 5687 5684 5682 5679 5677 5675
5736 5735 5735 5734 5735 5735 5732 5729 5726 5723 5722 5721 5720 5721 5720 5719 5719 5719 5718 5718 5718 5715 5714 5713 5711 5709 5705 5704 5699 5693 5691 5691 5689 5687 5685 5683 5680 5678 5675 5672 5670 5667 5664
5722 5723 5724 5725 5726 5726 5723 5721 5719 5716 5713 5711 5710 5711 5711 5713 5713 5713 5712 5711 5711 5710 5707 5707 5706 5702 5700 5699 5694 5687 5680 5677 5677 5677 5675 5673 5670 5668 5665 5662 5660 5657 5654
5711 5713 5716 5715 5716 5716 5714 5712 5711 5709 5707 5704 5703 5702 5703 5705 5706 5706 5706 5704 5704 5704 5701 5700 5700 5697 5692 5691 5691 5686 5678 5672 5666 5664 5663 5661 5659 5657 5655 5652 5650 5647 5644
5702 5705 5708 5707 5708 5708 5708 5707 5704 5700 5697 5695 5694 5693 5694 5696 5696 5696 5696 5695 5695 5695 5693 5693 5693 5691 5688 5684 5682 5682 5679 5675 5665 5655 5652 5651 5650 5647 5644 5643 5640 5637 5634
5692 5694 5695 5697 5699 5700 5700 5701 5698 5694 5690 5687 5685 5684 5684 5685 5685 5685 5686 5686 5685 5684 5683 5682 5682 5681 5680 5677 5675 5673 5671 5668 5665 5655 5645 5642 5640 5637 5635 5633 5631 5628 5625
5679 5682 5683 5685 5686 5690 5691 5692 5691 5688 5684 5679 5677 5674 5674 5674 5675 5674 5674 5674 5674 5673 5671 5670 5670 5670 5668 5666 5665 5664 5661 5658 5654 5650 5643 5636 5632 5628 5627 5624 5622 5619 5616